METAR LSZS 240820Z VRB01KT CAVOK M02/M06 Q1026 RMK D=
Diese Daten sind ohne Gewähr und dürfen nicht für die Flugvorbereitung verwendet werden.
Information contained in this website shall not be used for flight operation purposes.